Time,TemperatureF,DewpointF,PressureIn,WindDirection,WindDirectionDegrees,WindSpeedMPH,WindSpeedGustMPH,Humidity,HourlyPrecipIn,Conditions,Clouds,dailyrainin,SoftwareType,DateUTC
2013-03-09 00:00:00,41.0,26.0,30.28,North,0,0.0,0.0,55,0.00,,,0.00,WUHU216HW,2013-03-09 05:00:00,
2013-03-09 00:05:00,41.0,26.0,30.28,North,0,0.0,0.0,55,0.00,,,0.00,WUHU216HW,2013-03-09 05:05:00,
2013-03-09 00:30:00,40.1,25.6,30.29,North,0,0.0,0.0,56,0.00,,,0.00,WUHU216HW,2013-03-09 05:30:00,
2013-03-09 00:35:00,40.1,25.6,30.29,North,0,0.0,0.0,56,0.00,,,0.00,WUHU216HW,2013-03-09 05:35:00,
2013-03-09 01:00:00,38.7,26.0,30.30,North,0,0.0,0.0,60,0.00,,,0.00,WUHU216HW,2013-03-09 06:00:00,
2013-03-09 01:05:00,38.7,26.0,30.30,North,0,0.0,0.0,60,0.00,,,0.00,WUHU216HW,2013-03-09 06:05:00,
2013-03-09 01:30:00,37.8,25.6,30.29,North,0,0.0,0.0,61,0.00,,,0.00,WUHU216HW,2013-03-09 06:30:00,
2013-03-09 01:35:00,37.8,25.6,30.29,North,0,0.0,0.0,61,0.00,,,0.00,WUHU216HW,2013-03-09 06:35:00,
2013-03-09 02:00:00,37.3,25.5,30.28,North,0,0.0,0.0,62,0.00,,,0.00,WUHU216HW,2013-03-09 07:00:00,
2013-03-09 02:05:00,37.3,25.5,30.28,North,0,0.0,0.0,62,0.00,,,0.00,WUHU216HW,2013-03-09 07:05:00,
2013-03-09 02:30:00,36.4,24.6,30.26,North,0,0.0,0.0,62,0.00,,,0.00,WUHU216HW,2013-03-09 07:30:00,
2013-03-09 02:35:00,36.4,24.6,30.26,North,0,0.0,0.0,62,0.00,,,0.00,WUHU216HW,2013-03-09 07:35:00,
2013-03-09 03:00:00,36.0,24.7,30.25,North,0,0.0,0.0,63,0.00,,,0.00,WUHU216HW,2013-03-09 08:00:00,
2013-03-09 03:05:00,36.0,24.7,30.25,North,0,0.0,0.0,63,0.00,,,0.00,WUHU216HW,2013-03-09 08:05:00,
2013-03-09 03:30:00,35.6,25.4,30.25,North,0,0.0,0.0,66,0.00,,,0.00,WUHU216HW,2013-03-09 08:30:00,
2013-03-09 03:35:00,35.6,25.4,30.25,North,0,0.0,0.0,66,0.00,,,0.00,WUHU216HW,2013-03-09 08:35:00,
2013-03-09 04:00:00,34.7,24.5,30.26,North,0,0.0,0.0,66,0.00,,,0.00,WUHU216HW,2013-03-09 09:00:00,
2013-03-09 04:05:00,34.7,24.5,30.26,North,0,0.0,0.0,66,0.00,,,0.00,WUHU216HW,2013-03-09 09:05:00,
2013-03-09 04:30:00,33.7,23.8,30.26,North,0,0.0,0.0,67,0.00,,,0.00,WUHU216HW,2013-03-09 09:30:00,
2013-03-09 04:35:00,33.7,23.8,30.26,North,0,0.0,0.0,67,0.00,,,0.00,WUHU216HW,2013-03-09 09:35:00,
2013-03-09 05:00:00,34.2,24.3,30.26,North,0,0.0,0.0,67,0.00,,,0.00,WUHU216HW,2013-03-09 10:00:00,
2013-03-09 05:05:00,34.2,24.3,30.26,North,0,0.0,0.0,67,0.00,,,0.00,WUHU216HW,2013-03-09 10:05:00,
2013-03-09 05:30:00,33.7,23.8,30.27,North,0,0.0,0.0,67,0.00,,,0.00,WUHU216HW,2013-03-09 10:30:00,
2013-03-09 05:35:00,33.7,23.8,30.27,North,0,0.0,0.0,67,0.00,,,0.00,WUHU216HW,2013-03-09 10:35:00,
2013-03-09 06:00:00,32.4,22.3,30.28,North,0,0.0,0.0,66,0.00,,,0.00,WUHU216HW,2013-03-09 11:00:00,
2013-03-09 06:05:00,32.4,22.3,30.28,North,0,0.0,0.0,66,0.00,,,0.00,WUHU216HW,2013-03-09 11:05:00,
2013-03-09 06:30:00,31.9,21.8,30.28,North,0,0.0,0.0,66,0.00,,,0.00,WUHU216HW,2013-03-09 11:30:00,
2013-03-09 06:35:00,31.9,21.8,30.28,North,0,0.0,0.0,66,0.00,,,0.00,WUHU216HW,2013-03-09 11:35:00,
2013-03-09 07:00:00,30.8,19.6,30.29,North,0,0.0,0.0,63,0.00,,,0.00,WUHU216HW,2013-03-09 12:00:00,
2013-03-09 07:05:00,30.8,19.6,30.29,North,0,0.0,0.0,63,0.00,,,0.00,WUHU216HW,2013-03-09 12:05:00,
2013-03-09 07:30:00,32.8,21.9,30.30,North,0,0.0,0.0,64,0.00,,,0.00,WUHU216HW,2013-03-09 12:30:00,
2013-03-09 07:35:00,32.8,21.9,30.30,North,0,0.0,0.0,64,0.00,,,0.00,WUHU216HW,2013-03-09 12:35:00,
2013-03-09 08:00:00,35.5,24.5,30.30,North,0,0.0,0.0,64,0.00,,,0.00,WUHU216HW,2013-03-09 13:00:00,
2013-03-09 08:05:00,35.5,24.5,30.30,North,0,0.0,0.0,64,0.00,,,0.00,WUHU216HW,2013-03-09 13:05:00,
2013-03-09 08:30:00,38.3,26.8,30.32,North,0,0.0,0.0,63,0.00,,,0.00,WUHU216HW,2013-03-09 13:30:00,
2013-03-09 08:35:00,38.3,26.8,30.32,North,0,0.0,0.0,63,0.00,,,0.00,WUHU216HW,2013-03-09 13:35:00,
2013-03-09 09:00:00,41.2,28.8,30.33,North,0,0.0,0.0,61,0.00,,,0.00,WUHU216HW,2013-03-09 14:00:00,
2013-03-09 09:05:00,41.2,28.8,30.33,North,0,0.0,0.0,61,0.00,,,0.00,WUHU216HW,2013-03-09 14:05:00,
2013-03-09 09:30:00,43.6,29.3,30.33,North,0,0.0,0.0,57,0.00,,,0.00,WUHU216HW,2013-03-09 14:30:00,
2013-03-09 09:35:00,43.6,29.3,30.33,North,0,0.0,0.0,57,0.00,,,0.00,WUHU216HW,2013-03-09 14:35:00,
2013-03-09 10:00:00,46.4,30.2,30.32,North,0,0.0,0.0,53,0.00,,,0.00,WUHU216HW,2013-03-09 15:00:00,
2013-03-09 10:05:00,46.4,30.2,30.32,North,0,0.0,0.0,53,0.00,,,0.00,WUHU216HW,2013-03-09 15:05:00,
2013-03-09 10:30:00,48.2,30.4,30.32,North,0,0.0,0.0,50,0.00,,,0.00,WUHU216HW,2013-03-09 15:30:00,
2013-03-09 10:35:00,48.2,30.4,30.32,North,0,0.0,0.0,50,0.00,,,0.00,WUHU216HW,2013-03-09 15:35:00,
2013-03-09 11:00:00,50.4,30.9,30.32,North,0,0.0,0.0,47,0.00,,,0.00,WUHU216HW,2013-03-09 16:00:00,
2013-03-09 11:05:00,50.4,30.9,30.32,North,0,0.0,0.0,47,0.00,,,0.00,WUHU216HW,2013-03-09 16:05:00,
2013-03-09 11:30:00,51.8,30.5,30.31,North,0,0.0,0.0,44,0.00,,,0.00,WUHU216HW,2013-03-09 16:30:00,
2013-03-09 11:35:00,51.8,30.5,30.31,North,0,0.0,0.0,44,0.00,,,0.00,WUHU216HW,2013-03-09 16:35:00,
2013-03-09 12:00:00,53.8,31.7,30.31,North,0,0.0,0.0,43,0.00,,,0.00,WUHU216HW,2013-03-09 17:00:00,
2013-03-09 12:05:00,53.8,31.7,30.31,North,0,0.0,0.0,43,0.00,,,0.00,WUHU216HW,2013-03-09 17:05:00,
2013-03-09 12:30:00,55.1,32.3,30.30,North,0,0.0,0.0,42,0.00,,,0.00,WUHU216HW,2013-03-09 17:30:00,
2013-03-09 12:35:00,55.1,32.3,30.30,North,0,0.0,0.0,42,0.00,,,0.00,WUHU216HW,2013-03-09 17:35:00,
2013-03-09 13:00:00,56.5,32.5,30.29,North,0,0.0,0.0,40,0.00,,,0.00,WUHU216HW,2013-03-09 18:00:00,
2013-03-09 13:05:00,56.5,32.5,30.29,North,0,0.0,0.0,40,0.00,,,0.00,WUHU216HW,2013-03-09 18:05:00,
2013-03-09 13:30:00,58.0,33.0,30.27,North,0,0.0,0.0,39,0.00,,,0.00,WUHU216HW,2013-03-09 18:30:00,
2013-03-09 13:35:00,58.0,33.0,30.27,North,0,0.0,0.0,39,0.00,,,0.00,WUHU216HW,2013-03-09 18:35:00,
2013-03-09 14:00:00,58.7,33.0,30.26,North,0,0.0,0.0,38,0.00,,,0.00,WUHU216HW,2013-03-09 19:00:00,
2013-03-09 14:05:00,58.7,33.0,30.26,North,0,0.0,0.0,38,0.00,,,0.00,WUHU216HW,2013-03-09 19:05:00,
2013-03-09 14:30:00,60.3,34.5,30.25,North,0,0.0,0.0,38,0.00,,,0.00,WUHU216HW,2013-03-09 19:30:00,
2013-03-09 14:35:00,60.3,34.5,30.25,North,0,0.0,0.0,38,0.00,,,0.00,WUHU216HW,2013-03-09 19:35:00,
2013-03-09 15:00:00,61.0,33.7,30.24,North,0,0.0,0.0,36,0.00,,,0.00,WUHU216HW,2013-03-09 20:00:00,
2013-03-09 15:05:00,61.0,33.7,30.24,North,0,0.0,0.0,36,0.00,,,0.00,WUHU216HW,2013-03-09 20:05:00,
2013-03-09 15:30:00,60.7,32.6,30.24,North,0,0.0,0.0,35,0.00,,,0.00,WUHU216HW,2013-03-09 20:30:00,
2013-03-09 15:35:00,60.7,32.6,30.24,North,0,0.0,0.0,35,0.00,,,0.00,WUHU216HW,2013-03-09 20:35:00,
2013-03-09 16:00:00,61.0,33.7,30.23,North,0,0.0,0.0,36,0.00,,,0.00,WUHU216HW,2013-03-09 21:00:00,
2013-03-09 16:05:00,61.0,33.7,30.23,North,0,0.0,0.0,36,0.00,,,0.00,WUHU216HW,2013-03-09 21:05:00,
2013-03-09 16:30:00,60.8,32.0,30.23,North,0,0.0,0.0,34,0.00,,,0.00,WUHU216HW,2013-03-09 21:30:00,
2013-03-09 16:35:00,60.8,32.0,30.23,North,0,0.0,0.0,34,0.00,,,0.00,WUHU216HW,2013-03-09 21:35:00,
2013-03-09 17:00:00,60.3,31.6,30.23,North,0,0.0,0.0,34,0.00,,,0.00,WUHU216HW,2013-03-09 22:00:00,
2013-03-09 17:05:00,60.3,31.6,30.23,North,0,0.0,0.0,34,0.00,,,0.00,WUHU216HW,2013-03-09 22:05:00,
2013-03-09 17:30:00,62.6,33.7,30.24,North,0,0.0,0.0,34,0.00,,,0.00,WUHU216HW,2013-03-09 22:30:00,
2013-03-09 17:35:00,62.6,33.7,30.24,North,0,0.0,0.0,34,0.00,,,0.00,WUHU216HW,2013-03-09 22:35:00,
2013-03-09 18:00:00,59.9,32.7,30.25,North,0,0.0,0.0,36,0.00,,,0.00,WUHU216HW,2013-03-09 23:00:00,
2013-03-09 18:05:00,59.9,32.7,30.25,North,0,0.0,0.0,36,0.00,,,0.00,WUHU216HW,2013-03-09 23:05:00,
2013-03-09 18:30:00,55.1,31.1,30.25,North,0,0.0,0.0,40,0.00,,,0.00,WUHU216HW,2013-03-09 23:30:00,
2013-03-09 18:35:00,55.1,31.1,30.25,North,0,0.0,0.0,40,0.00,,,0.00,WUHU216HW,2013-03-09 23:35:00,
2013-03-09 19:00:00,51.1,29.9,30.26,North,0,0.0,0.0,44,0.00,,,0.00,WUHU216HW,2013-03-10 00:00:00,
2013-03-09 19:05:00,51.1,29.9,30.26,North,0,0.0,0.0,44,0.00,,,0.00,WUHU216HW,2013-03-10 00:05:00,
2013-03-09 19:30:00,49.1,29.2,30.26,North,0,0.0,0.0,46,0.00,,,0.00,WUHU216HW,2013-03-10 00:30:00,
2013-03-09 19:35:00,49.1,29.2,30.26,North,0,0.0,0.0,46,0.00,,,0.00,WUHU216HW,2013-03-10 00:35:00,
2013-03-09 20:00:00,47.9,29.0,30.27,North,0,0.0,0.0,48,0.00,,,0.00,WUHU216HW,2013-03-10 01:00:00,
2013-03-09 20:05:00,47.9,29.0,30.27,North,0,0.0,0.0,48,0.00,,,0.00,WUHU216HW,2013-03-10 01:05:00,
2013-03-09 20:30:00,45.9,28.4,30.26,North,0,0.0,0.0,50,0.00,,,0.00,WUHU216HW,2013-03-10 01:30:00,
2013-03-09 20:35:00,45.9,28.4,30.26,North,0,0.0,0.0,50,0.00,,,0.00,WUHU216HW,2013-03-10 01:35:00,
2013-03-09 21:00:00,45.0,28.5,30.26,North,0,0.0,0.0,52,0.00,,,0.00,WUHU216HW,2013-03-10 02:00:00,
2013-03-09 21:05:00,45.0,28.5,30.26,North,0,0.0,0.0,52,0.00,,,0.00,WUHU216HW,2013-03-10 02:05:00,
2013-03-09 21:30:00,44.3,27.7,30.27,North,0,0.0,0.0,52,0.00,,,0.00,WUHU216HW,2013-03-10 02:30:00,
2013-03-09 21:35:00,44.3,27.7,30.27,North,0,0.0,0.0,52,0.00,,,0.00,WUHU216HW,2013-03-10 02:35:00,
2013-03-09 22:00:00,43.0,27.0,30.27,North,0,0.0,0.0,53,0.00,,,0.00,WUHU216HW,2013-03-10 03:00:00,
2013-03-09 22:05:00,43.0,27.0,30.27,North,0,0.0,0.0,53,0.00,,,0.00,WUHU216HW,2013-03-10 03:05:00,
2013-03-09 22:30:00,42.3,26.4,30.27,North,0,0.0,0.0,53,0.00,,,0.00,WUHU216HW,2013-03-10 03:30:00,
2013-03-09 22:35:00,42.3,26.4,30.27,North,0,0.0,0.0,53,0.00,,,0.00,WUHU216HW,2013-03-10 03:35:00,
2013-03-09 23:00:00,42.1,27.0,30.28,North,0,0.0,0.0,55,0.00,,,0.00,WUHU216HW,2013-03-10 04:00:00,
2013-03-09 23:05:00,42.1,27.0,30.28,North,0,0.0,0.0,55,0.00,,,0.00,WUHU216HW,2013-03-10 04:05:00,
2013-03-09 23:30:00,41.4,26.8,30.28,North,0,0.0,0.0,56,0.00,,,0.00,WUHU216HW,2013-03-10 04:30:00,
2013-03-09 23:35:00,41.4,26.8,30.28,North,0,0.0,0.0,56,0.00,,,0.00,WUHU216HW,2013-03-10 04:35:00,